Change the Weather History Date:

Wednesday, July 10, 2013

  Actual Average Record
Temperature  
Mean Temperature 60 °F 60 °F  
Max Temperature 64 °F 67 °F 93 °F (1908)
Min Temperature 56 °F 53 °F 44 °F (1967)
Degree Days  
Heating Degree Days 5 5  
Month to date heating degree days 29 56  
Since 1 June heating degree days 210 298  
Since 1 July heating degree days 29 56  
Cooling Degree Days 0 0  
Month to date cooling degree days 0 0  
Year to date cooling degree days 4 0  
Since 1 June cooling degree days 3 0  
Growing Degree Days 9 (Base 50)    
Moisture  
Dew Point 50 °F    
Average Humidity 73    
Maximum Humidity 86    
Minimum Humidity 60    
Precipitation  
Precipitation 0.00 in 0.04 in 1.01 in (1913)
Month to date precipitation T 0.44  
Year to date precipitation 34.97 36.35  
Snow  
Snow 0.00 in - - ()
Month to date snowfall 0.0  
Since 1 June snowfall 0.0  
Snow Depth 0.00 in    
Sea Level Pressure  
Sea Level Pressure 30.10 in    
Wind  
Wind Speed 14 mph (NW)    
Max Wind Speed 21 mph    
Max Gust Speed 29 mph    
Visibility 10 miles    
Events      
T = Trace of Precipitation, MM = Missing Value Source: NWS Daily Summary

Daily Weather History Graph

Daily Weather History Graph

Search for Another Location

Airport or City:

Trip Planner

Search our weather history database for the weather conditions in past years. The results will help you decide how hot, cold, wet, or windy it might be!

Date:

Astronomy

Jul. 10, 2013 Rise Set
Actual Time 5:34 AM PDT 9:06 PM PDT
Civil Twilight 4:57 AM PDT 9:44 PM PDT
Nautical Twilight 4:07 AM PDT 10:34 PM PDT
Astronomical Twilight 3:00 AM PDT 11:39 PM PDT
Moon 8:12 AM PDT (7/10) 10:06 PM PDT (7/10)
Length of Visible Light 16h 47m
Length of Day
15h 31m
Waxing Crescent, 6% of the Moon is Illuminated
Jul 10
Waxing Crescent
Jul 15
First Quarter
Jul 22
Full
Jul 29
Last Quarter
Aug 6
New

Hourly Weather History & Observations

Time (PDT) Temp. Dew Point Humidity Pressure Visibility Wind Dir Wind Speed Gust Speed Precip Events Conditions
12:55 AM 57.0 °F 53.1 °F 87% 30.12 in 10.0 mi NNW 10.4 mph - N/A   Mostly Cloudy
1:55 AM 55.9 °F 52.0 °F 87% 30.12 in 10.0 mi NW 10.4 mph - N/A   Overcast
2:47 AM 55.4 °F 51.8 °F 88% 30.12 in 10.0 mi NW 15.0 mph - N/A   Overcast
2:55 AM 55.9 °F 51.1 °F 84% 30.11 in 10.0 mi NW 12.7 mph - N/A   Overcast
3:17 AM 57.2 °F 51.8 °F 82% 30.11 in 10.0 mi NNW 12.7 mph - N/A   Overcast
3:55 AM 55.9 °F 51.1 °F 84% 30.11 in 10.0 mi NNW 12.7 mph - N/A   Overcast
4:27 AM 55.4 °F 51.8 °F 88% 30.10 in 10.0 mi NNW 12.7 mph - N/A   Overcast
4:55 AM 55.9 °F 51.1 °F 84% 30.10 in 10.0 mi NW 11.5 mph - N/A   Overcast
5:55 AM 55.9 °F 51.1 °F 84% 30.11 in 10.0 mi NNW 9.2 mph - N/A   Overcast
6:55 AM 55.9 °F 51.1 °F 84% 30.12 in 10.0 mi NW 11.5 mph - N/A   Overcast
7:55 AM 57.0 °F 51.1 °F 81% 30.12 in 10.0 mi NNW 12.7 mph 18.4 mph N/A   Overcast
8:55 AM 57.9 °F 50.0 °F 75% 30.13 in 10.0 mi NNW 11.5 mph - N/A   Overcast
9:55 AM 59.0 °F 48.9 °F 69% 30.13 in 10.0 mi NNW 15.0 mph - N/A   Overcast
10:55 AM 59.0 °F 48.9 °F 69% 30.13 in 10.0 mi NNW 11.5 mph - N/A   Overcast
11:55 AM 62.1 °F 50.0 °F 65% 30.12 in 10.0 mi NW 13.8 mph - N/A   Mostly Cloudy
12:10 PM 62.6 °F 50.0 °F 63% 30.12 in 10.0 mi NNW 15.0 mph - N/A   Scattered Clouds
12:55 PM 63.0 °F 50.0 °F 63% 30.12 in 10.0 mi NNW 13.8 mph - N/A   Mostly Cloudy
1:15 PM 62.6 °F 51.8 °F 68% 30.11 in 10.0 mi NW 16.1 mph - N/A   Scattered Clouds
1:55 PM 63.0 °F 50.0 °F 63% 30.11 in 10.0 mi NW 15.0 mph - N/A   Clear
2:55 PM 64.0 °F 50.0 °F 60% 30.10 in 10.0 mi NW 16.1 mph 24.2 mph N/A   Clear
3:55 PM 62.1 °F 50.0 °F 65% 30.10 in 10.0 mi NW 20.7 mph - N/A   Clear
4:55 PM 62.1 °F 50.0 °F 65% 30.09 in 10.0 mi NW 16.1 mph 23.0 mph N/A   Clear
5:55 PM 62.1 °F 50.0 °F 65% 30.08 in 10.0 mi NW 16.1 mph 21.9 mph N/A   Partly Cloudy
6:55 PM 61.0 °F 48.9 °F 64% 30.06 in 10.0 mi NNW 16.1 mph - N/A   Clear
7:55 PM 59.0 °F 48.9 °F 69% 30.06 in 10.0 mi NNW 15.0 mph 21.9 mph N/A   Scattered Clouds
8:19 PM 59.0 °F 48.2 °F 67% 30.06 in 10.0 mi NNW 11.5 mph - N/A   Mostly Cloudy
8:29 PM 57.2 °F 48.2 °F 72% 30.06 in 10.0 mi NW 13.8 mph - N/A   Scattered Clouds
8:55 PM 57.0 °F 48.0 °F 72% 30.07 in 10.0 mi NNW 11.5 mph - N/A   Clear
9:55 PM 55.9 °F 48.9 °F 77% 30.08 in 10.0 mi NW 9.2 mph - N/A   Partly Cloudy
10:55 PM 55.0 °F 50.0 °F 83% 30.08 in 10.0 mi WNW 5.8 mph - N/A   Scattered Clouds
11:19 PM 55.4 °F 50.0 °F 82% 30.08 in 10.0 mi WNW 6.9 mph - N/A   Mostly Cloudy
11:31 PM 55.4 °F 50.0 °F 82% 30.08 in 10.0 mi WNW 3.5 mph - N/A   Scattered Clouds
11:55 PM 53.1 °F 48.9 °F 86% 30.08 in 10.0 mi West 4.6 mph - N/A   Partly Cloudy